Regional Weather Roundup
Issued by NWS

Home | Current Version | Previous Version | Graphics & Text | Print | Product List | Glossary On
Versions: 1 2 3 4 5 6 7 8 9 10 11 12 13 14 15 16 17 18 19 20 21 22 23 24 25 26 27 28 29 30 31 32 33 34 35 36 37 38 39 40 41 42 43 44 45 46 47 48 49 50
000
ASUS45 KBOU 210707
RWRCO

WEATHER ROUNDUP FOR COLORADO
NATIONAL WEATHER SERVICE DENVER/BOULDER CO
100 AM MDT THU AUG 21 2014

NOTE: "FAIR" INDICATES FEW OR NO CLOUDS BELOW 12000 FEET WITH NO
SIGNIFICANT WEATHER AND/OR OBSTRUCTIONS TO VISIBILITY.

COZ001>005-013-030-031-210800-
...NORTHWEST COLORADO...

CITY           SKY/WX    TMP DP  RH WIND       PRES   REMARKS
CRAIG          PTCLDY    57  50  77 VRB3      30.17R
HAYDEN         PTCLDY    54  46  76 E6        30.18R
MEEKER         CLOUDY    57  50  77 NE7       30.17R
MOUNT WERNER   NOT AVBL
STEAMBOAT SPGS PTCLDY    50  47  90 NW5       30.21R
WALDEN         PTCLDY    43  41  93 SE7       30.25R
$$

COZ006>008-011-210800-
...WEST CENTRAL VALLEYS...

CITY           SKY/WX    TMP DP  RH WIND       PRES   REMARKS
GRAND JUNCTION PTCLDY    60  52  74 CALM      30.09R
MONTROSE       PTCLDY    65  48  54 S10       30.16R
EAGLE          MOCLDY    55  54  94 CALM      30.23R
RIFLE          CLOUDY    61  50  67 E6        30.13S
DELTA          PTCLDY    65  49  55 N6        30.12
NUCLA          PTCLDY    55  50  82 E6        30.22R
$$

COZ017>023-064>068-210800-
...SOUTHWEST COLORADO...

CITY           SKY/WX    TMP DP  RH WIND       PRES   REMARKS
DURANGO        CLEAR     57  40  52 CALM      30.19R
CORTEZ         CLEAR     53  46  77 NE5       30.18R
PAGOSA SPRINGS CLEAR     53  40  63 CALM      30.27R
TELLURIDE      PTCLDY    50  45  81 E3        30.38R
WOLF CREEK PAS NOT AVBL
$$

COZ009-010-012-014-032>034-037-058>063-210800-
...CENTRAL COLORADO...

CITY           SKY/WX    TMP DP  RH WIND       PRES   REMARKS
ASPEN          PTCLDY    50  44  80 SW8       30.27R
BUENA VISTA    CLOUDY    63  35  35 W15       30.24R
COPPER MTN     HAZE      45  39  81 SW3       30.52R VSB 1/4
BERTHOUD PASS  FOG       36  36 100 NW17G24   30.54R VSB 3/4
COTTONWOOD PAS CLOUDY    59  34  38 W17G29    30.35S
GUNNISON       PTCLDY    52  37  58 N8        30.29S
KREMMLING      MOCLDY    52  46  82 E5        30.25S
LEADVILLE      CLOUDY    48  39  71 N7        30.38R
MONARCH PASS   CLEAR     41  37  87 W22       30.61R
SALIDA         MOCLDY    66  39  36 W9        30.28R
SUNLIGHT       MOCLDY    43  43 100 SW3       30.46R
WILKERSON PASS MOCLDY    48  41  76 SW6       30.48R
$$

COZ069>075-210800-
...SAN LUIS VALLEY/SANGRE DE CRISTO MOUNTAINS...

CITY           SKY/WX    TMP DP  RH WIND       PRES   REMARKS
ALAMOSA        PTCLDY    55  43  63 NW3       30.22R
LA VETA PASS   NOT AVBL
SAGUACHE       PTCLDY    59  41  51 N12       30.26R
$$

COZ035-036-038>040-210800-
...NORTHERN COLORADO FRONT RANGE...

CITY           SKY/WX    TMP DP  RH WIND       PRES   REMARKS
DENVER INTL AP CLOUDY    63  57  81 SW8       30.05R
DMNS CITY PARK   N/A     63  58  82 SW3       30.05S
AURORA         MOCLDY    63  54  73 SE8       30.07S
FRONT RANGE AP NOT AVBL
ERIE MUNI ARPT MOCLDY    64  56  75 CALM      30.03R
BOULDER MUN AP MOCLDY    63  54  72 N3        30.03S
CENTENNIAL     MOCLDY    62  54  74 SW6       30.08S
BROOMFIELD     MOCLDY    63  55  77 S6        30.07R
FORT COLLINS   MOCLDY    66  54  63 CALM      30.04R
LONGMONT       MOCLDY    67  55  65 CALM      30.04R
$$

COZ041-046-047-076>085-087-088-210800-
...PIKES PEAK/PALMER DIVIDE AND SOUTHERN FOOTHILLS...

CITY           SKY/WX    TMP DP  RH WIND       PRES   REMARKS
COLO. SPRINGS  PTCLDY    65  49  56 N15       30.09R
A. F. ACADEMY  PTCLDY    60  51  72 N9        30.13R
ELLICOTT       PTCLDY    62  55  77 N13       30.06R
FALCON         PTCLDY    60  49  66 N16G23    30.14S
FORT CARSON    CLOUDY    68  50  52 N22G28    30.05R
LIMON          MOCLDY    63  56  78 N12       30.03R
MONUMENT HILL  PTCLDY    54  50  87 N3        30.16R
TRINIDAD       CLEAR     70  44  39 W12       30.03R
$$

COZ042>045-048>051-090-091-210800-
...NORTHEAST COLORADO...

CITY           SKY/WX    TMP DP  RH WIND       PRES   REMARKS
GREELEY ARPT   CLOUDY    63  54  72 CALM      30.02R
AKRON          CLOUDY    63  58  83 N13       29.98F
BURLINGTON     PTCLDY    68  56  65 CALM      29.93R
WRAY             N/A     67  60  78 W13G25    29.92R
STERLING       CLOUDY    72  61  68 W12       29.96R
HOLYOKE        NOT AVBL
FORT MORGAN    CLOUDY    65  58  78 SW3       30.00F
$$

COZ086-089-092>099-210800-
...SOUTHEAST COLORADO...

CITY           SKY/WX    TMP DP  RH WIND       PRES   REMARKS
PUEBLO         PTCLDY    71  56  58 N9        29.96R
LA JUNTA       CLEAR     68  52  56 N3        29.89R
LAMAR          CLEAR     78  55  44 SW8       29.83R
SPRINGFIELD      N/A     74  58  57 S14G23    29.93S
$$



USA.gov is the U.S. government's official web portal to all federal, state and local government web resources and services.